DELTA 1 DEB

Satellite information

Favourite Embed

Satellite Type and Status

DEBRISIN ORBIT

Key statistics

Satellite DELTA 1 DEB at a glance.

Uptime

20824

Days in orbit

Revolutions

≈ 10.0

Per day

Orbit

HEO

HEO

Inclination

120.6

Latest

Satellite identification and parameters

Extended collection of information and parameters for DELTA 1 DEB.

Object identification

Identified? True

Debris? True

Object name: DELTA 1 DEB

International designator: 1968-055E

Object number (NORAD): 25270

Object ID (CCSDS): 25270

Country: UNITED STATES OF AMERICA (US)

Current information (Y/N): Y

RCS size: SMALL

Orbital parameters

Period: 143.556 minutes

Inclination: 120.6196 deg

SMA: 9081.835 km

Apoapsis: 4696.904 km

Periapsis: 710.496 km

RAAN: 180.3855 deg

Eccentricy: 0.2194715

Argument of periapsis: 156.1266 deg

Mean anomaly: 215.9188 deg

Mean motion: 10.03095711 rev/day

Mean motion (dot): 0.00002891 rev/day2

B* drag term: 0.0062968 1/REarth

Two-line elements (TLE)

Creation date: July 6, 2025, 6:05 p.m.

Reference frame: TEME

Reference center: EARTH

Epoch: July 6, 2025, 10:34 a.m. UTC

TLE line 0: 0 DELTA 1 DEB

TLE line 1: 1 25270U 68055E 25187.44029300 .00002891 00000-0 62968-2 0 9998

TLE line 2: 2 25270 120.6196 180.3855 2194715 156.1266 215.9188 10.03095711410195

Live tracking on map

Real-time ground track for satellite DELTA 1 DEB.

In-orbit conjunctions

A list of the most updated potential collisions computed for object DELTA 1 DEB.

Target Orbit TCA Probability of collision Miss distance Type
COSMOS 2213 LEO 2024-10-19 20:35:06 0.0001031178 979.0 (m) PAYLOAD

Associated space launch

The RAE A (Radio Astronomy Explorer A) spacecraft measured the intensity of celestial radio sources, particularly the sun, as a function of time, direction, and frequency (0.2 to 20 MHz).

DELTA 1 DEB was lifted into orbit during the mission ‘Thor Delta J | RAE 1’, on board a Thor Delta J space rocket.

The launch took place on July 4, 1968, 5:26 p.m. from Space Launch Complex 2E.

For more information about the launch, click the button.

Launch to space Thor Delta J | RAE 1
Thor Delta J | RAE 1

Agency: N/A

Status: Launch Successful

Launch date: July 4, 1968, 5:26 p.m. UTC

Rocket: Thor Delta J

Launch pad: Space Launch Complex 2E

Location: Vandenberg SFB, CA, USA

...

Latest news about this satellite

There are no fresh news available about this satellite. Check back as we update our databases every day.


Newsletter sign-up

Weekly statistics, charts and insights to help you stay on top of the space industry.